#timestamp,LO_Frequency,Hit,StdDev 
1644098435.2,286047000.3,N
1644098455.1,286046998.1,P
1644098456.0,286046998.1,N
1644098475.8,286046997.1,N
1644098495.7,286047001.2,N
1644098515.5,286046998.6,N
1644098535.3,286046998.4,N
1644098555.2,286047000.6,N
1644098575.0,286047000.5,N
1644098575.9,286047000.5,N
1644098595.7,286047002.2,N
1644098615.6,286047001.3,N
1644098635.4,286047000.5,N
1644098655.3,286046998.3,N
1644098675.1,286046999.0,N
1644098695.8,286047000.1,N
1644098715.7,286047000.5,N
1644098735.5,286047001.0,N
1644098755.3,286047000.7,N
1644098775.2,286047002.8,N
1644098795.0,286047004.0,N
1644098795.9,286047004.0,N
1644098815.8,286047001.3,N
1644098835.6,286047005.5,Y
1644098855.4,286047003.4,P
1644098875.3,286047007.2,P
1644098895.1,286047007.2,N
1644098915.9,286047005.2,N
1644098935.7,286047002.9,N
1644098955.5,286047006.0,N
1644098975.4,286047005.7,N
1644098995.2,286047006.6,N
1644099015.0,286047007.0,Y
1644099015.9,286047007.0,P
1644099035.8,286047004.8,P
1644099055.6,286047008.5,P
1644099075.5,286047010.6,Y
1644099095.3,286047004.0,P
1644099115.1,286047002.8,N
1644099135.9,286047001.2,N
1644099155.7,286046997.8,N
1644099175.6,286046993.5,N
1644099195.4,286046992.1,N
1644099215.2,286046992.7,N
1644099235.1,286046992.9,N
1644099236.0,286046992.9,N
1644099255.8,286046995.6,N
1644099275.6,286046993.3,N
1644099295.5,286046996.4,N
1644099315.3,286046993.7,N
1644099335.2,286046994.0,N
1644099355.9,286046995.4,N
1644099375.7,286046993.4,N
1644099395.6,286046994.7,N
1644099415.4,286046994.1,N
1644099435.2,286046991.7,N
1644099455.1,286046991.7,N
1644099456.0,286046991.7,N
1644099475.8,286046994.7,N
1644099495.7,286046992.0,N
1644099515.5,286046992.0,N
1644099535.3,286046993.2,N
1644099555.2,286046993.0,N
1644099575.9,286046993.1,N
1644099595.7,286046991.5,N
1644099615.6,286046991.3,N
1644099635.4,286046993.2,N
1644099655.3,286046992.9,N
1644099675.1,286046990.9,Y
1644099676.0,286046990.9,P
1644099695.8,286046996.9,N
1644099715.7,286046998.7,N
1644099735.5,286046998.3,N
1644099755.3,286046998.8,N
1644099775.2,286046997.9,N
1644099795.0,286046996.6,N
1644099795.9,286046996.6,N
1644099815.8,286046997.1,N
1644099835.6,286046999.8,N
1644099855.4,286046999.2,N
1644099875.3,286046997.6,N
1644099895.1,286046995.8,N
1644099915.9,286046995.3,N
1644099935.7,286046995.3,N
1644099955.5,286046997.9,N
1644099975.4,286046996.2,N
1644099995.2,286046997.7,N
1644100015.0,286046997.6,N
1644100015.9,286046997.6,N
1644100035.8,286046997.9,N
1644100055.6,286046995.4,N
1644100075.5,286046997.3,N
1644100095.3,286046997.8,N
1644100115.1,286046997.4,N
1644100135.9,286046996.9,N
1644100155.7,286046996.7,N
1644100175.5,286047000.8,N
1644100195.4,286047001.2,N
1644100215.2,286046997.5,N
1644100235.1,286046994.9,N
1644100236.0,286046994.9,Y
1644100255.8,286046999.1,P
1644100275.6,286046999.4,N
1644100295.5,286046998.8,N
1644100315.3,286047000.9,N
1644100335.1,286047003.5,Y
1644100355.9,286047004.2,P
1644100375.7,286046999.9,N
1644100395.6,286046999.8,N
1644100415.4,286047002.5,N
1644100435.2,286047001.5,N
1644100455.1,286047001.7,N
1644100456.0,286047001.7,N
1644100475.8,286047001.7,N
1644100495.7,286047002.8,N
1644100515.5,286047000.2,N
1644100535.3,286047000.1,N
1644100555.2,286047004.3,Y
1644100575.0,286047002.7,P
1644100575.9,286047002.7,P
1644100595.8,286047002.5,P
1644100615.6,286047001.5,N
1644100635.4,286047003.9,Y
1644100655.3,286047000.4,P
1644100675.1,286047001.4,N
1644100695.8,286047000.1,N
1644100715.7,286047000.1,N
1644100735.5,286047001.0,N
1644100755.4,286047000.8,N
1644100775.2,286047001.8,N
1644100795.0,286047002.3,Y
1644100795.9,286047002.3,P
1644100815.8,286046998.1,N
1644100835.6,286047000.6,N
1644100855.4,286046997.3,N
1644100875.3,286046999.3,N
1644100895.1,286046997.0,N
1644100915.9,286046997.7,N
1644100935.7,286046997.5,N
1644100955.5,286046995.0,N
1644100975.4,286046993.3,Y
1644100995.2,286046997.9,P
1644101015.0,286046995.0,P
1644101015.9,286046995.0,P
1644101035.8,286046997.4,N
1644101055.6,286046995.7,N
1644101075.5,286046995.4,Y
1644101095.3,286046999.8,P
1644101115.1,286047002.7,N
1644101135.9,286047002.8,N
1644101155.7,286047001.0,N
1644101175.5,286047000.6,N
1644101195.4,286046998.7,N
1644101215.2,286046999.6,N
1644101235.1,286046998.7,N
1644101236.0,286046998.7,N
1644101255.8,286047002.8,N
1644101275.6,286047000.0,N
1644101295.5,286047002.6,N
1644101315.3,286047001.5,N
1644101335.1,286047001.6,N
1644101355.9,286047000.3,N
1644101375.7,286047000.5,N
1644101395.6,286046998.1,N
1644101415.4,286046998.8,N
1644101435.2,286046998.9,N
1644101455.1,286046999.3,N
1644101456.0,286046999.3,N
1644101475.8,286046998.8,N
1644101495.7,286046998.9,N
1644101515.5,286047002.1,N
1644101535.3,286047000.3,N
1644101555.2,286047003.8,N
1644101575.9,286047003.7,N
1644101595.7,286047001.8,N
1644101615.6,286047000.5,N
1644101635.4,286046998.7,N
1644101655.2,286046997.3,N
1644101675.1,286046995.4,N
1644101676.0,286046995.4,N
1644101695.8,286046996.6,N
1644101715.7,286047000.4,N
1644101735.5,286047000.1,N
1644101755.3,286046997.0,N
1644101775.2,286046997.0,N
1644101795.0,286046997.9,N
1644101795.9,286046997.9,N
1644101815.8,286046996.0,N
1644101835.6,286046996.1,N
1644101855.4,286046996.5,N
1644101875.3,286046997.2,N
1644101895.1,286046999.2,N
1644101915.8,286046997.0,N
1644101935.7,286047000.2,N
1644101955.5,286047000.8,N
1644101975.4,286046998.2,N
1644101995.2,286047002.5,N
